Temp
13 13 13 13 14 14 14 14 14 14 15 15 15 15 15 16 16 16 16 16 16 16 16 16 16 16 15 15 13 14 15 15 16 16 16 16 18 18 19 19 19 16 17 16 15 15 14
12 13 13 13 13 13 14 14 14 14 14 14 15 15 15 16 16 16 16 16 16 16 16 16 16 15 15 15 13 14 14 15 15 15 15 15 15 17 18 18 17 18 17 15 14 14 12
13 13 13 13 13 13 13 13 14 14 14 14 15 15 15 15 16 16 16 16 16 16 15 15 15 15 14 13 13 14 14 14 15 15 14 15 16 16 18 16 16 17 15 15 15 14 13
13 13 13 13 13 13 13 13 13 13 14 14 14 15 15 15 16 16 16 16 16 15 15 15 15 14 12 13 13 13 13 12 14 14 15 15 15 15 16 15 16 16 17 14 15 15 13
12 12 13 13 13 13 13 13 13 13 14 14 14 14 15 15 16 16 16 16 15 15 15 14 14 14 12 13 12 13 13 13 13 14 15 15 15 15 15 15 15 16 14 15 14 15 13
12 12 12 12 12 12 13 13 13 13 14 14 14 14 15 15 15 16 16 15 14 15 14 14 14 14 13 12 13 13 13 13 13 13 14 15 15 14 14 15 14 17 15 18 17 14 13
11 12 12 12 12 12 12 12 13 13 13 14 14 14 15 15 15 15 15 15 14 13 14 12 12 12 12 12 12 12 13 13 13 14 15 15 14 14 17 16 15 16 16 16 15 15 14
11 11 11 12 12 12 12 13 13 13 13 13 14 14 14 15 15 15 14 13 14 13 12 12 12 12 12 12 12 12 13 13 14 15 15 14 15 14 15 15 15 16 15 15 14 14 13
11 11 10 11 11 12 12 12 13 13 13 13 13 13 14 14 14 14 14 14 14 13 13 12 12 12 11 12 12 12 12 13 14 15 15 15 14 14 15 15 15 15 15 15 15 14 13
11 11 11 10 11 11 12 12 12 12 13 13 13 13 14 14 14 14 14 13 13 13 13 13 12 12 11 11 12 11 12 12 14 14 15 15 13 14 14 14 15 13 12 13 13 13 9
10 11 11 10 10 11 11 11 12 12 12 12 13 13 13 14 14 14 13 13 13 13 12 13 12 11 11 12 11 11 12 12 14 14 14 14 13 13 13 13 13 12 12 12 12 11 10
10 10 11 10 10 10 11 11 11 12 12 12 12 12 13 13 13 13 13 13 13 12 12 12 12 12 12 12 12 12 11 12 12 13 13 12 11 12 11 11 11 12 12 11 11 10 6
9 10 10 10 10 10 10 10 11 11 11 11 12 12 12 13 13 13 13 12 13 11 13 13 12 12 13 13 12 12 12 12 12 10 12 13 12 10 10 11 11 11 11 8 7 7 7
9 9 10 10 10 10 10 10 10 11 11 11 11 12 12 12 12 12 12 11 13 16 15 12 13 12 13 13 13 12 12 11 10 11 11 10 9 11 10 10 9 10 11 8 10 10 10
9 9 9 9 9 9 9 9 10 10 10 11 11 11 11 12 12 12 12 11 13 16 14 13 12 12 13 12 11 12 12 12 10 11 11 12 11 8 8 9 9 10 8 10 9 10 7
9 9 9 9 9 9 9 9 9 9 10 10 10 11 10 11 11 11 11 13 13 12 12 13 14 14 15 12 11 12 12 9 8 8 8 9 9 9 7 8 8 8 9 8 7 6 8
8 9 9 9 8 8 8 8 8 9 9 10 10 10 10 10 11 11 10 13 11 9 10 12 14 14 14 14 13 13 12 7 8 7 7 9 9 7 8 7 8 6 7 8 7 6 6
7 8 8 9 9 8 8 8 8 8 8 8 9 9 10 10 10 12 11 11 9 9 8 10 10 11 12 13 12 12 13 8 7 8 8 7 8 7 9 5 6 7 8 8 4 7 7
8 8 7 8 9 8 8 7 7 7 7 7 9 10 9 9 9 9 8 9 9 8 9 9 10 9 9 11 10 12 8 4 5 7 7 7 6 5 6 5 5 5 6 6 6 4 4
7 7 7 9 8 7 8 7 7 7 6 6 7 7 7 8 9 10 10 10 8 6 8 8 8 8 9 9 10 9 7 4 4 5 5 5 5 6 5 7 6 5 5 4 4 1 5
6 6 6 6 7 7 6 6 6 6 6 6 4 6 8 6 8 9 11 10 9 7 6 7 7 8 9 9 9 8 8 4 3 4 4 4 4 5 5 5 5 5 4 4 3 3 1
5 6 6 6 6 6 7 6 6 6 6 6 4 5 7 9 10 9 9 7 9 7 6 7 7 8 7 8 9 8 7 6 5 3 4 4 3 3 3 3 3 3 2 2 3 2 2
4 5 5 5 6 6 7 5 5 6 6 6 4 4 5 8 8 8 7 9 8 7 5 5 7 8 7 7 5 4 4 4 5 3 3 3 2 2 2 3 2 1 -0 -1 1 -2 -3
4 4 5 5 5 5 6 6 5 6 5 6 6 3 4 4 5 7 8 8 6 7 5 4 5 7 3 3 3 3 3 3 3 2 2 2 3 2 -0 2 -1 -4 -4 -5 -6 -7 -8
3 4 4 4 4 5 5 5 6 5 5 5 5 3 3 3 3 4 5 5 4 3 3 3 1 2 2 3 2 2 1 2 1 -0 1 1 1 0 -1 -1 1 -5 -5 -6 -7 -7 -8
3 3 3 4 4 4 5 5 5 5 5 5 5 5 3 3 2 1 2 4 3 3 1 -1 -0 1 1 2 2 3 4 5 -0 -2 -1 0 -0 -1 -1 -2 -1 -6 -5 -4 -6 -8 -7
2 3 3 4 4 4 5 5 5 4 5 4 4 3 2 1 -1 -1 -0 1 4 3 1 -0 -2 -1 -0 1 2 3 3 2 1 0 -3 -2 -2 -2 -2 -3 -4 -7 -5 -6 -8 -8 -7
2 2 3 4 4 4 4 5 4 4 5 4 3 1 1 1 -2 -2 -2 -0 -0 1 1 -0 -0 -1 -1 0 1 0 -0 -1 1 2 -1 -1 -2 -5 -4 -4 -4 -5 -6 -6 -7 -7 -7
2 3 4 4 4 4 4 2 4 4 4 2 1 1 0 -0 -4 -4 -3 -2 -2 -1 -0 -0 -0 -0 1 -0 0 -0 -0 -1 -1 -3 -2 -2 -1 -2 -2 -4 -5 -5 -5 -6 -7 -6 -8
Height
1544 1544 1544 1544 1544 1544 1543 1543 1542 1541 1541 1540 1540 1539 1538 1537 1536 1534 1533 1531 1530 1528 1528 1527 1527 1528 1529 1530 1531 1530 1529 1529 1528 1528 1528 1529 1529 1530 1528 1530 1530 1533 1537 1540 1541 1541 1544
1544 1544 1544 1544 1543 1543 1543 1542 1542 1542 1541 1541 1540 1539 1538 1537 1535 1534 1533 1531 1529 1528 1527 1527 1527 1528 1529 1531 1530 1530 1529 1529 1528 1528 1529 1529 1530 1531 1531 1532 1533 1534 1538 1542 1544 1545 1547
1544 1544 1544 1544 1543 1543 1542 1542 1542 1542 1541 1540 1539 1538 1538 1537 1535 1533 1532 1531 1529 1528 1528 1527 1528 1529 1530 1531 1530 1530 1529 1529 1529 1529 1529 1530 1531 1532 1532 1534 1536 1537 1541 1542 1542 1544 1546
1545 1544 1543 1543 1543 1543 1542 1542 1541 1541 1540 1539 1538 1537 1536 1536 1535 1533 1531 1530 1529 1528 1528 1528 1529 1529 1530 1531 1530 1530 1529 1530 1529 1529 1530 1530 1531 1532 1533 1536 1537 1538 1537 1545 1539 1542 1546
1544 1544 1543 1542 1542 1542 1541 1541 1541 1540 1540 1539 1537 1536 1535 1535 1534 1532 1531 1530 1529 1528 1528 1529 1530 1530 1533 1532 1531 1530 1530 1529 1529 1530 1530 1531 1532 1534 1535 1535 1539 1536 1545 1539 1543 1540 1544
1543 1542 1542 1542 1541 1541 1541 1540 1539 1539 1539 1538 1538 1536 1535 1534 1533 1532 1530 1529 1529 1529 1529 1529 1530 1533 1533 1533 1531 1530 1530 1529 1530 1531 1532 1533 1533 1534 1534 1536 1548 1536 1539 1529 1532 1538 1541
1541 1541 1541 1541 1540 1540 1539 1539 1538 1537 1537 1537 1536 1536 1535 1533 1532 1532 1530 1529 1532 1531 1529 1530 1532 1532 1531 1531 1530 1530 1529 1529 1530 1532 1532 1533 1536 1538 1529 1531 1533 1533 1533 1534 1533 1534 1540
1540 1540 1540 1540 1539 1538 1538 1537 1536 1536 1536 1535 1535 1534 1533 1533 1532 1531 1530 1530 1529 1530 1531 1530 1530 1531 1530 1530 1531 1530 1530 1531 1530 1529 1531 1535 1536 1534 1532 1533 1534 1533 1535 1535 1534 1535 1539
1540 1539 1538 1538 1538 1537 1537 1536 1535 1535 1534 1534 1533 1533 1532 1531 1531 1531 1530 1530 1529 1529 1529 1531 1530 1531 1531 1531 1531 1531 1531 1531 1529 1528 1529 1533 1536 1534 1534 1534 1535 1533 1536 1535 1537 1536 1536
1538 1538 1537 1536 1537 1536 1536 1535 1534 1534 1533 1533 1532 1531 1531 1531 1532 1530 1530 1530 1529 1529 1529 1531 1531 1532 1532 1531 1532 1532 1531 1533 1531 1531 1531 1532 1535 1534 1535 1536 1534 1540 1538 1537 1538 1541 1555
1536 1535 1536 1536 1535 1534 1534 1533 1532 1532 1531 1531 1530 1530 1529 1529 1529 1529 1530 1529 1528 1529 1545 1532 1531 1531 1531 1532 1533 1532 1531 1531 1531 1530 1533 1533 1534 1536 1537 1535 1535 1541 1540 1540 1540 1544 1546
1533 1533 1533 1534 1533 1532 1532 1532 1531 1530 1530 1529 1529 1528 1528 1527 1527 1528 1527 1527 1529 1534 1542 1530 1530 1531 1531 1531 1531 1531 1532 1532 1532 1533 1532 1534 1537 1538 1540 1540 1541 1541 1541 1541 1542 1547 1564
1529 1530 1530 1530 1531 1531 1530 1529 1529 1529 1528 1528 1527 1527 1526 1526 1526 1526 1526 1528 1532 1541 1527 1529 1527 1528 1528 1529 1530 1530 1530 1532 1534 1542 1537 1534 1536 1539 1540 1541 1542 1543 1545 1559 1562 1564 1554
1523 1524 1526 1527 1527 1528 1529 1528 1527 1527 1527 1526 1525 1525 1524 1524 1525 1525 1526 1529 1534 1515 1518 1524 1524 1526 1527 1526 1529 1530 1530 1532 1534 1535 1539 1542 1547 1539 1542 1543 1544 1542 1540 1553 1546 1544 1538
1517 1518 1520 1522 1523 1525 1525 1526 1525 1525 1524 1524 1524 1523 1522 1522 1523 1524 1527 1532 1522 1511 1515 1520 1525 1526 1526 1527 1530 1530 1529 1530 1533 1534 1537 1533 1537 1542 1541 1542 1543 1542 1548 1541 1545 1536 1547
1512 1513 1514 1516 1517 1519 1521 1522 1522 1522 1522 1521 1521 1521 1519 1520 1521 1524 1527 1521 1515 1516 1517 1517 1517 1516 1517 1524 1530 1528 1527 1533 1535 1536 1536 1535 1540 1541 1545 1545 1543 1543 1544 1550 1551 1558 1539
1507 1508 1508 1509 1512 1514 1515 1516 1518 1518 1519 1519 1520 1520 1517 1518 1520 1524 1525 1517 1517 1519 1518 1518 1514 1516 1516 1518 1521 1520 1523 1536 1535 1537 1537 1535 1538 1546 1544 1543 1538 1547 1546 1544 1546 1548 1550
1502 1504 1505 1506 1507 1510 1511 1511 1511 1512 1514 1516 1518 1519 1515 1516 1521 1517 1516 1515 1518 1519 1520 1520 1520 1519 1518 1518 1522 1523 1520 1531 1535 1536 1537 1537 1537 1542 1535 1541 1541 1540 1538 1538 1555 1540 1537
1498 1498 1500 1500 1503 1504 1505 1507 1507 1508 1508 1512 1513 1513 1513 1514 1516 1515 1516 1517 1518 1519 1519 1520 1520 1521 1522 1521 1525 1519 1528 1538 1536 1536 1536 1538 1541 1549 1540 1545 1544 1541 1539 1540 1543 1548 1546
1494 1495 1497 1497 1499 1502 1502 1503 1506 1504 1505 1508 1512 1512 1510 1511 1509 1508 1510 1512 1517 1518 1519 1519 1520 1522 1523 1523 1522 1525 1531 1538 1539 1538 1537 1539 1539 1535 1540 1530 1535 1539 1541 1541 1545 1558 1534
1489 1490 1492 1493 1494 1497 1498 1499 1501 1502 1502 1506 1508 1506 1503 1508 1505 1505 1505 1508 1511 1517 1520 1520 1522 1520 1519 1521 1519 1522 1525 1538 1540 1538 1539 1540 1543 1536 1533 1533 1534 1533 1537 1538 1540 1536 1545
1485 1485 1486 1488 1489 1493 1494 1496 1496 1497 1498 1502 1504 1503 1501 1498 1497 1501 1504 1508 1507 1511 1515 1518 1519 1515 1518 1519 1516 1518 1522 1528 1531 1538 1539 1539 1540 1538 1538 1534 1536 1536 1536 1533 1533 1533 1533
1480 1482 1483 1482 1485 1487 1489 1491 1493 1493 1496 1494 1498 1500 1501 1497 1497 1499 1500 1499 1502 1505 1512 1513 1514 1515 1517 1518 1519 1522 1525 1526 1527 1531 1536 1539 1542 1541 1538 1536 1537 1536 1534 1535 1530 1535 1541
1477 1478 1479 1480 1481 1482 1484 1486 1487 1489 1492 1492 1492 1495 1500 1500 1497 1497 1496 1497 1501 1505 1508 1511 1514 1515 1520 1518 1519 1526 1527 1528 1528 1529 1532 1534 1537 1542 1548 1539 1552 1541 1541 1541 1543 1545 1546
1472 1473 1475 1476 1477 1479 1480 1481 1483 1486 1490 1487 1488 1490 1492 1496 1496 1496 1498 1500 1501 1505 1510 1512 1516 1517 1521 1520 1522 1527 1529 1531 1531 1532 1534 1534 1535 1542 1551 1545 1527 1546 1542 1543 1545 1549 1546
1466 1469 1471 1472 1474 1476 1476 1477 1477 1480 1484 1486 1481 1486 1488 1492 1492 1495 1497 1500 1501 1504 1511 1512 1515 1517 1521 1520 1521 1518 1514 1513 1531 1536 1536 1536 1537 1542 1542 1549 1538 1542 1540 1540 1543 1554 1546
1462 1465 1467 1468 1469 1470 1471 1470 1471 1474 1478 1481 1479 1479 1484 1487 1488 1492 1496 1499 1497 1499 1505 1510 1514 1517 1518 1520 1519 1515 1512 1514 1522 1524 1538 1540 1541 1542 1540 1546 1537 1537 1538 1541 1560 1552 1544
1459 1460 1462 1462 1464 1465 1465 1464 1467 1470 1471 1476 1475 1476 1480 1481 1484 1488 1491 1496 1498 1500 1502 1507 1511 1514 1518 1518 1514 1514 1516 1518 1516 1515 1525 1527 1535 1546 1543 1547 1542 1534 1540 1544 1540 1540 1544
1455 1456 1456 1457 1458 1459 1461 1462 1463 1465 1469 1470 1473 1472 1476 1483 1485 1488 1491 1496 1497 1499 1501 1500 1502 1501 1506 1508 1508 1507 1512 1516 1516 1527 1518 1525 1518 1522 1524 1528 1529 1532 1531 1535 1537 1540 1543
Wind_Speed
3 2 1 2 3 3 4 4 4 3 4 4 4 5 7 7 8 8 9 8 6 6 4 3 0 2 5 3 1 3 3 3 1 2 3 3 4 3 0 5 1 10 7 10 11 15 16
3 2 2 2 2 3 3 4 4 4 4 4 5 5 6 7 8 9 9 8 6 6 4 3 1 3 2 2 3 3 3 3 2 4 3 4 1 2 5 5 6 8 11 13 10 8 10
5 5 5 5 4 4 4 4 3 3 3 4 5 6 6 7 8 8 9 8 6 5 5 3 3 6 2 4 1 2 3 4 3 2 1 2 6 3 3 5 5 12 6 5 10 12 4
8 8 7 6 5 5 5 5 4 4 4 5 5 5 7 7 8 8 8 7 5 4 3 3 4 5 2 2 3 4 3 4 3 2 2 3 6 3 3 7 4 5 2 4 6 12 9
10 9 9 8 6 5 5 4 5 5 5 6 6 6 6 7 7 7 7 6 3 3 4 3 4 4 3 2 3 4 3 2 4 3 3 4 5 3 4 3 3 5 4 7 5 15 6
11 10 9 9 8 6 6 5 4 5 6 6 7 7 7 7 7 6 6 4 4 4 3 5 6 2 2 2 3 4 3 1 3 3 4 2 1 2 3 3 2 1 5 4 4 8 7
12 12 11 9 9 8 6 6 5 5 6 6 6 7 7 7 7 5 4 1 1 2 4 4 1 2 2 1 5 4 3 5 3 1 2 2 2 4 2 0 4 5 6 7 6 5 5
13 12 12 11 10 9 8 7 6 6 6 6 7 7 6 7 6 5 3 1 2 4 4 3 3 2 1 3 2 5 3 1 2 1 2 2 0 6 6 5 4 5 6 7 4 7 3
15 14 12 12 11 10 9 8 7 7 7 7 7 7 8 7 5 4 3 1 2 5 1 2 3 1 2 3 1 3 3 1 3 3 3 2 3 3 2 2 3 5 5 5 3 2 8
14 15 14 13 12 11 11 10 9 8 7 7 7 7 7 6 3 4 2 1 2 3 2 5 3 0 1 2 1 3 3 2 2 3 2 3 2 1 2 3 2 4 6 5 4 2 3
14 14 15 14 13 13 12 11 10 9 8 7 6 6 6 5 4 4 3 1 1 3 3 2 2 1 1 1 1 1 2 3 3 2 2 2 3 3 4 2 4 3 4 4 4 5 5
18 16 15 14 13 13 12 12 11 10 9 9 8 6 6 5 4 3 2 0 2 2 5 3 2 2 2 2 3 1 0 2 1 2 3 3 2 3 4 4 4 2 3 5 3 1 2
24 20 18 16 14 13 12 11 11 10 9 9 8 7 5 6 5 3 1 1 1 3 1 4 3 4 2 3 4 1 2 3 0 2 3 3 4 3 1 2 2 0 2 3 2 0 6
28 26 24 21 18 15 14 11 10 10 9 9 8 7 6 5 5 4 2 1 3 0 4 1 3 3 3 3 2 3 2 2 2 1 2 3 3 2 1 2 2 5 1 4 5 3 3
16 25 28 27 22 20 17 15 11 10 9 8 8 7 8 7 5 4 3 2 4 2 5 7 3 4 5 3 0 4 6 2 4 2 4 1 3 3 3 0 0 3 4 2 3 5 4
18 15 22 29 28 26 22 20 16 12 10 8 7 6 10 7 7 6 1 5 2 2 2 0 4 6 4 8 4 5 7 1 4 1 2 2 2 1 2 2 3 1 3 1 1 3 5
21 19 14 18 26 26 25 24 21 17 12 9 5 3 5 6 8 5 3 3 3 1 1 2 2 2 5 4 4 3 2 0 1 3 1 3 2 2 1 6 5 3 2 3 0 2 3
18 23 25 15 16 20 22 21 21 21 16 11 5 3 5 11 4 5 2 2 1 3 1 1 2 3 3 3 4 4 2 5 3 4 2 1 1 3 3 3 4 2 2 2 4 4 4
20 19 20 28 26 15 12 18 19 17 18 13 5 4 6 15 4 4 2 3 1 3 3 3 3 2 4 2 3 2 5 1 2 2 0 2 3 3 1 1 2 3 4 3 2 1 7
22 19 22 23 26 15 18 18 17 17 14 19 4 2 4 11 6 1 5 5 5 3 2 1 3 2 3 3 2 1 3 2 2 1 1 1 3 6 5 2 4 4 5 6 7 3 8
23 22 24 26 24 22 20 21 21 15 8 13 8 5 5 4 7 6 5 4 5 4 2 5 2 7 5 5 3 5 5 3 3 4 3 1 4 5 6 6 5 3 6 8 11 10 6
19 23 25 25 25 27 26 24 19 21 15 15 8 4 4 2 4 9 5 7 9 4 8 4 4 8 7 5 1 4 6 6 5 6 4 3 3 4 3 8 8 5 8 10 11 9 9
16 17 21 24 28 29 29 25 23 26 16 11 14 8 3 4 3 4 6 6 8 13 4 1 6 4 6 1 9 6 8 6 5 6 6 5 2 2 3 2 6 7 10 4 3 3 4
17 15 16 18 21 25 26 27 31 24 25 27 20 13 5 3 2 4 3 5 6 6 5 5 3 3 6 9 11 8 8 6 3 6 5 4 3 1 3 2 4 2 2 3 4 3 4
17 17 16 17 17 19 25 26 32 29 26 26 22 15 9 3 3 1 3 1 12 9 3 5 2 2 12 8 3 3 2 2 3 5 3 2 3 2 2 4 3 1 3 3 4 3 1
17 17 19 18 17 17 20 27 29 29 32 31 28 23 11 6 5 3 6 9 2 4 3 3 7 11 9 3 2 6 5 4 4 3 2 1 2 2 2 3 5 3 4 3 3 4 6
17 19 20 19 19 19 19 21 26 26 28 25 25 27 17 9 5 11 4 4 5 5 3 6 7 5 6 3 4 4 3 1 5 5 5 3 2 5 5 4 4 5 9 5 5 5 13
16 19 21 21 21 20 19 18 22 23 23 21 21 21 20 7 10 12 11 4 4 6 3 11 6 3 2 4 3 3 2 4 1 2 6 6 6 3 2 2 8 17 6 5 7 11 8
14 16 19 20 21 20 19 16 20 20 17 13 15 16 21 5 6 7 8 8 10 11 4 17 1 5 10 3 1 2 2 2 2 3 2 3 3 4 5 4 7 21 9 11 9 7 6
Wind_Direction
180 155 56 16 17 11 7 360 3 358 4 351 348 0 354 352 354 353 358 356 357 351 349 338 336 136 132 98 263 333 340 343 355 57 32 52 4 342 66 94 116 90 84 70 101 97 92
236 256 266 296 322 335 347 348 347 342 337 329 337 346 343 346 349 349 355 353 2 357 359 13 63 134 136 213 295 344 359 5 33 83 37 99 104 77 64 52 27 109 125 123 118 108 119
254 269 280 291 306 321 327 330 328 323 317 317 327 333 341 344 346 349 353 356 359 5 16 46 103 121 105 157 310 5 27 22 27 66 77 98 113 27 140 116 113 125 117 144 161 154 130
261 267 274 280 292 306 316 319 318 316 310 309 317 333 341 342 343 344 352 354 356 9 35 63 117 99 94 81 62 28 64 12 28 61 84 124 123 114 38 121 139 192 209 189 153 169 153
256 266 271 276 278 284 290 303 311 313 310 310 313 329 332 337 342 338 342 349 10 39 55 79 110 119 87 71 22 359 33 84 54 51 86 115 100 113 128 213 177 208 247 211 175 185 138
253 254 263 272 276 277 283 292 302 305 305 307 315 322 326 333 336 331 337 353 58 83 94 95 90 140 107 236 347 11 352 99 93 60 44 60 205 209 234 211 187 284 227 246 185 190 160
254 257 255 255 265 271 274 283 293 295 298 302 307 311 319 327 326 326 332 12 15 62 63 89 28 101 118 146 58 3 52 88 73 328 221 145 248 218 217 179 15 337 322 317 75 114 179
254 248 254 259 255 261 268 274 281 287 288 293 299 303 310 318 317 323 320 171 228 162 95 72 81 93 128 113 168 354 87 336 199 203 111 159 331 40 49 31 342 304 284 272 88 138 159
266 255 246 255 260 260 261 264 270 277 284 289 298 307 312 315 302 309 358 68 151 162 242 153 157 126 193 97 95 322 93 128 339 178 169 294 89 60 352 151 263 242 259 305 345 123 220
268 261 257 253 253 255 258 261 264 268 274 283 293 299 305 314 293 313 308 33 175 200 213 148 156 337 52 103 169 356 34 50 202 24 31 36 103 206 207 272 40 287 15 14 323 350 241
263 264 262 260 257 259 257 259 263 269 272 275 279 284 292 293 283 298 305 340 222 152 359 41 114 209 143 22 112 338 26 53 338 91 253 156 160 188 235 27 14 64 10 337 306 272 307
256 255 257 258 261 256 257 261 261 261 269 274 273 272 275 260 253 268 280 280 136 58 255 125 120 148 211 174 143 2 61 49 93 317 197 61 68 359 27 64 25 61 300 242 249 244 305
252 250 250 250 253 260 259 259 263 267 265 266 266 266 264 265 262 247 229 118 61 171 54 173 174 186 263 156 157 260 164 184 234 48 224 151 149 99 335 197 124 48 321 329 324 323 229
261 250 249 247 247 249 255 253 253 254 258 265 267 265 255 248 249 247 181 161 237 283 193 52 136 156 224 130 149 153 188 214 94 249 315 185 301 142 41 53 138 190 217 184 256 247 247
286 267 255 249 247 249 250 253 253 257 256 263 267 265 263 242 225 206 155 204 234 99 110 158 148 207 174 153 294 200 209 70 62 30 204 247 161 120 33 22 252 165 205 31 310 271 282
262 284 267 259 251 249 249 248 246 249 253 258 269 282 265 239 222 195 210 254 146 25 101 189 217 185 213 155 186 191 170 345 142 3 346 130 256 306 119 242 233 284 322 142 289 290 267
249 249 269 280 266 258 255 253 246 240 242 242 252 271 248 205 173 169 212 234 115 105 339 292 311 145 250 157 219 211 90 257 338 140 312 20 129 133 148 208 173 158 224 205 265 209 238
243 252 257 279 262 274 258 255 252 246 233 228 205 234 213 177 162 215 235 40 99 145 231 134 329 349 337 136 202 243 190 62 50 157 173 67 325 249 187 70 26 351 347 178 160 240 227
253 240 247 242 254 258 281 265 254 252 236 208 208 240 201 183 193 207 149 117 300 159 196 175 186 335 26 246 240 199 85 87 146 219 132 160 229 297 276 38 359 219 189 224 22 81 205
257 246 245 245 245 253 244 270 254 249 242 206 194 225 188 199 247 254 148 193 180 197 124 166 111 127 174 212 194 45 143 140 195 257 169 56 268 212 214 118 150 186 209 211 189 202 257
252 251 247 251 253 237 256 264 265 248 286 217 180 245 207 186 222 206 162 126 159 180 251 197 198 232 183 210 184 192 140 137 197 173 189 238 246 253 281 312 323 252 223 245 224 231 237
255 252 251 253 256 245 246 251 263 249 254 260 181 218 265 334 115 173 155 204 188 142 155 212 236 183 218 221 246 145 143 162 184 153 196 154 253 15 291 269 274 284 273 250 252 260 278
260 259 256 254 254 255 249 244 245 245 235 244 236 215 266 195 184 165 194 188 197 137 207 70 212 168 210 143 103 91 74 78 94 146 190 165 223 147 249 25 313 271 251 266 238 88 121
251 257 264 261 253 251 249 242 238 247 251 242 236 202 178 274 222 212 193 154 162 182 138 139 181 216 155 146 112 90 77 77 82 70 46 177 178 49 279 10 258 204 108 134 111 111 108
253 254 258 264 264 256 244 243 238 241 242 250 256 209 156 227 209 338 147 121 112 111 88 120 76 154 146 129 114 158 167 171 126 46 326 50 173 188 213 215 291 172 223 177 138 262 84
237 257 254 256 260 261 248 235 234 234 239 252 236 249 192 145 210 168 160 195 157 137 123 108 133 141 177 203 174 208 205 179 182 141 335 10 16 149 148 210 250 197 137 108 104 279 165
238 252 256 253 255 258 255 237 230 231 240 254 241 223 204 184 181 167 161 212 164 142 110 135 159 158 177 195 203 207 210 93 191 183 164 163 198 205 227 242 282 168 148 145 90 241 165
244 252 255 255 256 253 249 235 213 223 241 241 234 217 197 185 174 190 177 176 163 194 148 138 116 188 172 208 191 206 162 198 154 122 170 164 165 190 186 227 269 149 130 178 154 136 170
257 262 263 262 257 244 235 212 213 221 230 226 213 206 203 196 138 181 185 202 201 188 148 170 188 149 176 168 232 99 135 123 202 221 4 206 182 171 176 207 135 161 114 144 154 155 193